Lid_Strength_Index
1 2 2 3 4 4 5 6 9 3 4 10 9 11 8 9 9 8 10 10 11 12 11 12 12 11 10 8 9 11 9 12 12 11 8 7 8 11 11 12 15 14 14 13
1 2 2 3 4 4 6 8 7 3 5 12 11 9 9 9 9 9 10 11 10 10 12 13 11 10 9 9 10 11 10 13 15 13 10 8 10 9 10 11 12 14 15 13
1 2 2 3 3 3 5 8 10 7 6 7 9 10 10 10 7 9 8 9 9 11 12 11 12 11 10 9 10 5 6 13 14 16 13 10 12 9 9 11 13 13 12 11
1 2 2 2 3 3 5 6 9 8 11 10 9 9 9 10 9 7 8 9 9 11 13 13 13 10 10 8 6 8 12 14 13 12 10 10 10 9 9 10 11 13 12 11
1 2 2 2 3 3 6 8 9 8 10 8 9 8 8 9 8 8 8 9 8 8 11 11 12 11 11 11 9 11 10 14 11 12 10 10 10 9 9 9 9 10 11 11
2 2 2 3 3 4 6 5 6 8 9 9 9 9 9 8 6 6 5 7 8 9 8 7 8 8 9 8 10 12 11 12 13 14 10 10 12 10 9 9 8 10 12 10
2 2 2 3 3 4 5 5 7 10 12 9 8 8 7 7 7 8 6 7 9 6 4 5 6 7 8 7 8 9 11 12 13 14 13 18 10 7 7 8 8 8 9 7
1 2 2 3 3 3 4 5 7 9 12 9 8 7 7 7 7 7 6 6 5 4 6 10 12 11 11 9 8 8 10 12 14 16 16 12 10 9 10 11 9 7 8 7
2 2 3 3 3 3 4 5 5 8 11 9 7 8 7 9 9 8 6 4 4 5 9 11 15 15 12 12 10 8 10 11 13 14 17 17 13 8 7 7 13 8 8 8
3 3 3 3 3 3 4 5 4 7 10 7 6 8 8 6 7 8 7 6 7 6 11 13 15 13 9 12 12 12 12 13 14 14 15 13 9 7 7 15 15 8 7 7
3 3 3 3 3 3 4 5 5 7 9 7 4 4 6 6 6 9 7 8 8 9 12 13 13 14 12 13 10 11 11 13 14 13 14 16 8 8 12 10 7 7 7 7
3 3 3 3 3 2 2 6 4 5 7 7 3 3 2 2 3 5 6 7 7 7 10 10 11 13 11 13 14 10 14 12 14 12 13 9 8 8 7 8 8 7 7 6
3 3 4 4 3 2 2 5 5 6 8 7 4 5 2 1 1 1 7 5 5 6 5 8 10 13 10 14 13 12 10 10 11 11 9 10 9 8 7 8 8 7 5 6
3 3 4 4 3 2 2 4 4 5 7 9 6 1 3 0 1 1 3 4 4 5 5 8 10 11 8 11 10 12 12 11 12 11 10 10 10 8 8 7 7 7 5 5
3 3 4 4 3 2 3 2 3 3 7 9 7 3 2 1 2 2 2 4 5 6 8 9 10 8 10 9 9 11 10 11 12 12 9 10 10 9 8 7 7 7 6 5
3 3 3 3 3 3 4 6 3 3 3 8 9 3 3 2 2 3 3 3 4 5 6 7 7 6 8 11 12 9 8 8 8 9 8 8 8 8 7 8 7 7 6 4
3 3 3 3 3 4 5 6 3 2 2 7 9 8 4 2 2 3 4 3 4 5 6 8 8 7 7 10 13 10 8 8 8 7 7 8 7 8 6 7 6 6 6 5
2 3 3 3 4 4 5 4 3 2 4 5 9 8 6 3 6 7 4 6 5 6 7 7 8 7 7 11 10 9 8 8 8 8 7 7 7 6 6 5 6 7 7 6
2 2 3 3 4 5 5 3 3 2 4 8 8 10 11 5 6 5 5 5 9 5 8 8 7 9 12 9 9 9 9 10 9 8 8 8 8 8 7 6 7 7 7 6
2 3 5 6 4 3 3 5 6 6 5 6 8 6 9 6 6 7 7 7 9 11 9 6 9 10 7 6 6 6 8 8 8 9 10 9 9 9 8 7 7 6 6 6
3 5 5 4 3 4 6 8 9 7 9 7 6 6 8 4 8 9 7 9 9 13 10 11 12 12 8 5 6 5 6 7 7 7 7 8 8 8 8 7 7 6 6 6
3 3 2 3 6 7 9 10 9 9 11 7 8 7 6 6 4 7 7 10 10 14 8 11 13 9 6 6 6 6 7 7 7 6 6 6 7 7 6 6 6 6 6 5
1 4 5 7 7 12 13 13 12 12 8 7 7 8 7 6 5 7 8 11 12 8 12 13 10 7 7 7 6 7 6 5 6 6 6 5 6 7 7 6 5 5 5 4
5 7 12 10 10 9 9 9 8 6 6 6 6 7 8 7 8 8 12 9 10 13 14 14 9 7 7 6 6 7 7 5 6 7 6 7 7 7 7 7 7 5 5 5
7 7 12 9 7 7 6 5 6 6 5 6 7 7 7 9 10 9 10 13 14 13 13 10 7 6 6 6 5 6 6 5 7 7 7 7 7 7 8 7 7 7 7 7
5 7 8 6 7 7 6 6 6 4 5 5 6 8 10 10 10 11 12 12 14 11 8 6 5 5 6 6 5 5 4 4 5 6 6 6 7 7 7 7 8 8 8 9
7 8 5 5 6 7 6 5 5 4 6 9 8 9 10 8 10 11 9 11 9 7 6 5 5 5 5 5 5 5 4 4 5 5 5 5 6 7 8 8 7 8 8 8